Location: *
(32.8140°S, 174.6161°E)
Time: 05:42:11
(UTC+00:00)

Sich 1 - Pass Details

Date: 10 December 2019
Orbit: 594 x 625 km, 82.5° (Epoch: 19 January)

Event Time Altitude Azimuth Distance (km) Brightness Sun altitude
Rises 15:08:42 0° 184° (S) 2,870 7.1 -20.5°
Reaches altitude 10° 15:10:57 10° 182° (S) 1,958 6.2 -20.1°
Maximum altitude 15:15:16 74° 97° (E) 631 3.1 -19.5°
Enters shadow 15:17:52 23° 15° (NNE) 1,280 4.4 -19.1°
